Location: Griffin Ranch
(33.6186°N, 110.6622°W)
Time: 18:41:07
(UTC-07:00)

Cosmos 1812 - Visible Passes

Search period start: 05 May 2016 00:00
Search period end: 15 May 2016 00:00
Orbit: 521 x 529 km, 82.5° (Epoch: 05 May)

Date Brightness Start Highest point End Pass type
(mag) Time Alt. Az. Time Alt. Az. Time Alt. Az.
06 May 5.3 21:15:13 11° NE 21:15:13 11° NE 21:15:23 10° NE visible
06 May 5.9 22:50:23 12° NW 22:50:23 12° NW 22:50:57 10° NNW visible
07 May 5.2 21:02:42 12° NE 21:02:42 12° NE 21:03:04 10° NE visible
07 May 5.6 22:37:52 15° NW 22:37:52 15° NW 22:39:01 10° NNW visible
08 May 5.0 20:50:08 12° NE 20:50:08 12° NE 20:50:42 10° NE visible
08 May 5.3 22:25:18 19° NW 22:25:18 19° NW 22:27:02 10° NNW visible
09 May 4.9 20:37:32 12° ENE 20:37:32 12° ENE 20:38:18 10° NE visible
09 May 5.0 22:12:42 24° NW 22:12:42 24° NW 22:15:02 10° NNW visible
10 May 4.9 20:24:53 12° ENE 20:24:53 12° ENE 20:25:47 10° ENE visible
10 May 4.5 22:00:02 29° WNW 22:00:02 29° WNW 22:03:00 10° NNW visible
11 May 4.8 20:12:09 11° E 20:12:09 11° E 20:13:06 10° ENE visible
11 May 4.1 21:47:18 34° W 21:47:24 34° W 21:50:58 10° NNW visible
12 May 3.9 21:34:30 35° WSW 21:35:15 39° W 21:38:54 10° N visible
13 May 3.7 21:21:37 30° SW 21:23:05 45° W 21:26:49 10° N visible
14 May 3.4 21:08:38 22° SSW 21:10:55 52° W 21:14:43 10° N visible
